Main page
METAR-TAF:

METAR-TAF

Airports :

Sabzevar Airport

Sabzevar, Iran

latitude: 36-13N, longitude: 057-40E, elevation: 941 m

Current weather observation

The report was made 17 minutes ago, at 14:00 UTC
Calm wind
Temperature 39°C
Humidity 18%
Pressure 1008 hPa
Visibility 10 km or more
Few clouds at a height of 3500 ft

METAR: OIMS 181400Z 00000KT 9999 FEW035 39/10 Q1008

Time: 18:47 (14:17 UTC)


TAF: missing

Weather observations and forecasts of more than 4000 airports (METAR and TAF reports).

The available stations are represented by yellow and red dots on the map.

Hover mouse over dot to see the name of the station.

Then click to see weather observations and forecasts.

To change the map : click on the green buttons with a black cross to zoom in, on the green button with a dash to zoom out, or on the green arrows for adjacent maps.


METAR-TAF: